カタログに戻る

STARLINK-4699

運用中通信VLEO
NORAD 53716·PAYLOAD·🇺🇸 United States

打ち上げ Sep 5, 2022 から Cape Canaveral Space Force Station

Loading…

次のパス (今後24時間)

TLE

最新Source: CelesTrak SupGP

元期: Sep 15, 2026, 02:53 UTC

1 53716C 22107S   26258.12062500 -.00009645  00000+0 -28494-3 0  2586
2 53716  53.1572 110.5403 0001203  82.4483 156.8885 15.34397542    11

AllMySatでSTARLINK-4699をリアルタイム追跡

Download on the App Store